KNE9029 OEJN-HKJK

Flight info

Callsign KNE9029
Flight time 3h 13m
Altitude 37000
Route RIBAM G650 RASKA/N0472F380 UG650 KONET UM308 RUDOL/N0466F390 UM308 LOTAS LOTAS4D
Aircraft A339/H-SADE1E2E3GHIJ3J5M1P2RWXY/LB2D1

Departure

Time 2026-05-04 10:04
Airport King Abdulaziz International Airport (OEJN)

Arrival

Time 2026-05-04 13:17
Airport Jomo Kenyatta International Airport (HKJK)
Time Latitude Longitude Altitude Speed Heading
2026-05-04 09:49 21.69646 39.13440 63 ft 2 kts 100°
2026-05-04 09:49 21.69650 39.13424 63 ft 2 kts 111°
2026-05-04 09:49 21.69657 39.13410 63 ft 2 kts 122°
2026-05-04 09:51 21.69699 39.13373 63 ft 0 kts 161°
2026-05-04 09:53 21.69697 39.13374 63 ft 1 kts 161°
2026-05-04 09:53 21.69683 39.13379 63 ft 3 kts 160°
2026-05-04 09:53 21.69657 39.13390 63 ft 4 kts 159°
2026-05-04 09:53 21.69622 39.13403 63 ft 5 kts 159°
2026-05-04 09:54 21.69580 39.13420 63 ft 7 kts 159°
2026-05-04 09:54 21.69528 39.13441 63 ft 8 kts 159°
2026-05-04 09:54 21.69476 39.13462 63 ft 7 kts 161°
2026-05-04 09:54 21.69432 39.13453 63 ft 6 kts 217°
2026-05-04 09:55 21.69405 39.13407 63 ft 8 kts 248°
2026-05-04 09:55 21.69383 39.13345 63 ft 9 kts 250°
2026-05-04 09:55 21.69359 39.13294 63 ft 6 kts 215°
2026-05-04 09:55 21.69307 39.13288 63 ft 8 kts 166°
2026-05-04 09:56 21.69247 39.13311 63 ft 9 kts 159°
2026-05-04 09:56 21.69177 39.13339 63 ft 11 kts 160°
2026-05-04 09:56 21.69093 39.13372 63 ft 13 kts 160°
2026-05-04 09:56 21.68996 39.13411 63 ft 15 kts 160°
2026-05-04 09:57 21.68889 39.13453 63 ft 17 kts 160°
2026-05-04 09:57 21.68773 39.13499 63 ft 18 kts 160°
2026-05-04 09:57 21.68650 39.13548 63 ft 19 kts 160°
2026-05-04 09:57 21.68520 39.13599 63 ft 20 kts 160°
2026-05-04 09:58 21.68386 39.13652 63 ft 20 kts 160°
2026-05-04 09:58 21.68247 39.13707 63 ft 21 kts 160°
2026-05-04 09:58 21.68106 39.13762 63 ft 21 kts 159°
2026-05-04 10:00 21.67204 39.14119 63 ft 10 kts 160°
2026-05-04 10:00 21.67149 39.14124 63 ft 8 kts 205°
2026-05-04 10:02 21.67854 39.13645 63 ft 110 kts 340°
2026-05-04 10:04 21.75223 39.09464 2211 ft 192 kts 330°
2026-05-04 10:04 21.76438 39.08746 2436 ft 204 kts 331°
2026-05-04 10:04 21.77642 39.07874 2651 ft 218 kts 309°
2026-05-04 10:04 21.78265 39.06338 2881 ft 234 kts 278°
2026-05-04 10:05 21.78356 39.04536 3134 ft 251 kts 265°
2026-05-04 10:05 21.78010 39.03219 3308 ft 265 kts 244°
2026-05-04 10:05 21.77325 39.02116 3520 ft 274 kts 232°
2026-05-04 10:05 21.76056 39.00577 4007 ft 280 kts 229°
2026-05-04 10:06 21.74729 38.99021 4530 ft 283 kts 229°
2026-05-04 10:06 21.73424 38.97426 5077 ft 286 kts 230°
2026-05-04 10:06 21.72455 38.96196 5497 ft 288 kts 230°
2026-05-04 10:08 21.64124 38.86599 8782 ft 299 kts 219°
2026-05-04 10:08 21.62503 38.85222 9369 ft 300 kts 219°
2026-05-04 10:08 21.60861 38.83830 9941 ft 302 kts 219°
2026-05-04 10:08 21.59197 38.82415 10418 ft 307 kts 219°
2026-05-04 10:09 21.57492 38.80963 10661 ft 322 kts 219°
2026-05-04 10:09 21.55690 38.79427 10914 ft 335 kts 219°
2026-05-04 10:09 21.53857 38.77864 11371 ft 341 kts 219°
2026-05-04 10:09 21.51980 38.76262 12004 ft 342 kts 219°
2026-05-04 10:10 21.50122 38.74677 12639 ft 343 kts 219°
2026-05-04 10:10 21.48266 38.73094 13254 ft 344 kts 219°
2026-05-04 10:10 21.46398 38.71502 13847 ft 345 kts 219°
2026-05-04 10:10 21.44502 38.69886 14429 ft 347 kts 219°
2026-05-04 10:11 21.42604 38.68270 15018 ft 349 kts 219°
2026-05-04 10:11 21.40678 38.66650 15586 ft 351 kts 216°
2026-05-04 10:11 21.38482 38.65563 16099 ft 357 kts 192°
2026-05-04 10:11 21.35969 38.65614 16658 ft 364 kts 168°
2026-05-04 10:12 21.33645 38.66695 17202 ft 370 kts 149°
2026-05-04 10:12 21.31521 38.68257 17738 ft 374 kts 148°
2026-05-04 10:12 21.29348 38.69825 18230 ft 378 kts 148°
2026-05-04 10:12 21.27151 38.71377 18713 ft 382 kts 149°
2026-05-04 10:13 21.24899 38.72945 19207 ft 386 kts 149°
2026-05-04 10:13 21.22639 38.74503 19700 ft 389 kts 149°
2026-05-04 10:13 21.20347 38.76077 20161 ft 393 kts 149°
2026-05-04 10:13 21.18029 38.77663 20614 ft 397 kts 149°
2026-05-04 10:14 21.15691 38.79261 21055 ft 400 kts 150°
2026-05-04 10:14 21.13327 38.80876 21488 ft 404 kts 150°
2026-05-04 10:16 20.96259 38.92506 24366 ft 424 kts 150°
2026-05-04 10:16 20.93757 38.94208 24752 ft 427 kts 150°
2026-05-04 10:16 20.91241 38.95919 25132 ft 429 kts 151°
2026-05-04 10:16 20.88734 38.97624 25508 ft 431 kts 151°
2026-05-04 10:17 20.86201 38.99344 25869 ft 433 kts 151°
2026-05-04 10:17 20.83641 39.01083 26230 ft 435 kts 151°
2026-05-04 10:19 20.64506 39.09680 28492 ft 429 kts 186°
2026-05-04 10:19 20.61499 39.09590 28801 ft 430 kts 186°
2026-05-04 10:19 20.58522 39.09493 29079 ft 433 kts 186°
2026-05-04 10:19 20.55487 39.09398 29359 ft 435 kts 186°
2026-05-04 10:20 20.52438 39.09310 29652 ft 438 kts 186°
2026-05-04 10:20 20.49369 39.09226 29944 ft 439 kts 185°
2026-05-04 10:20 20.46334 39.09145 30222 ft 441 kts 185°
2026-05-04 10:20 20.43237 39.09066 30505 ft 443 kts 185°
2026-05-04 10:21 20.40143 39.08987 30791 ft 445 kts 185°
2026-05-04 10:21 20.37044 39.08908 31058 ft 447 kts 185°
2026-05-04 10:21 20.33907 39.08829 31316 ft 449 kts 185°
2026-05-04 10:21 20.30802 39.08750 31553 ft 451 kts 185°
2026-05-04 10:22 20.24477 39.08591 32007 ft 455 kts 185°
2026-05-04 10:22 20.21306 39.08511 32237 ft 457 kts 185°
2026-05-04 10:22 20.18129 39.08431 32467 ft 459 kts 185°
2026-05-04 10:23 20.14884 39.08350 32705 ft 461 kts 185°
2026-05-04 10:23 20.11674 39.08270 32992 ft 463 kts 185°
2026-05-04 10:25 19.89421 39.07716 35703 ft 452 kts 184°
2026-05-04 10:25 19.86276 39.07637 36017 ft 451 kts 184°
2026-05-04 10:25 19.83127 39.07559 36286 ft 451 kts 184°
2026-05-04 10:25 19.79951 39.07480 36497 ft 452 kts 184°
2026-05-04 10:26 19.76804 39.07401 36700 ft 453 kts 184°
2026-05-04 10:26 19.73658 39.07322 36907 ft 454 kts 184°
2026-05-04 10:26 19.70491 39.07243 37118 ft 454 kts 184°
2026-05-04 10:26 19.67319 39.07164 37324 ft 455 kts 184°
2026-05-04 10:27 19.64150 39.07085 37513 ft 456 kts 184°
2026-05-04 10:27 19.60981 39.07007 37694 ft 456 kts 184°
2026-05-04 10:27 19.57812 39.06929 37840 ft 458 kts 184°
2026-05-04 10:28 19.51420 39.06770 37845 ft 459 kts 184°
2026-05-04 10:28 19.45013 39.06611 37843 ft 459 kts 184°
2026-05-04 10:29 19.38627 39.06451 37845 ft 458 kts 184°
2026-05-04 10:29 19.32258 39.06293 37847 ft 459 kts 184°
2026-05-04 10:30 19.25845 39.06135 37855 ft 460 kts 184°
2026-05-04 10:30 19.19434 39.05976 37852 ft 460 kts 184°
2026-05-04 10:31 19.13025 39.05817 37847 ft 460 kts 184°
2026-05-04 10:32 18.90646 39.04593 37833 ft 458 kts 185°
2026-05-04 10:33 18.84277 39.04236 37832 ft 460 kts 185°
2026-05-04 10:33 18.77864 39.03879 37839 ft 461 kts 185°
2026-05-04 10:34 18.71437 39.03522 37844 ft 461 kts 185°
2026-05-04 10:34 18.65027 39.03167 37836 ft 461 kts 185°
2026-05-04 10:35 18.58619 39.02811 37825 ft 461 kts 185°
2026-05-04 10:35 18.52179 39.02455 37824 ft 461 kts 185°
2026-05-04 10:36 18.45777 39.02101 37827 ft 461 kts 185°
2026-05-04 10:36 18.39325 39.01744 37828 ft 461 kts 185°
2026-05-04 10:37 18.32924 39.01390 37835 ft 462 kts 185°
2026-05-04 10:37 18.26474 39.01033 37836 ft 462 kts 185°
2026-05-04 10:39 18.03939 39.00028 37831 ft 463 kts 184°
2026-05-04 10:40 17.97467 38.99800 37830 ft 464 kts 184°
2026-05-04 10:40 17.91013 38.99569 37818 ft 464 kts 184°
2026-05-04 10:41 17.84542 38.99337 37813 ft 464 kts 184°
2026-05-04 10:41 17.78082 38.99106 37812 ft 464 kts 184°
2026-05-04 10:42 17.71612 38.98874 37813 ft 463 kts 184°
2026-05-04 10:42 17.65158 38.98640 37815 ft 463 kts 184°
2026-05-04 10:43 17.58727 38.98410 37811 ft 463 kts 184°
2026-05-04 10:45 17.32905 38.97478 37813 ft 463 kts 184°
2026-05-04 10:45 17.26452 38.97242 37818 ft 463 kts 184°
2026-05-04 10:46 17.19994 38.97007 37817 ft 463 kts 184°
2026-05-04 10:46 17.13540 38.96770 37818 ft 463 kts 184°
2026-05-04 10:47 17.07093 38.96535 37816 ft 463 kts 184°
2026-05-04 10:47 17.00637 38.96300 37825 ft 463 kts 184°
2026-05-04 10:49 16.74862 38.95362 37833 ft 463 kts 184°
2026-05-04 10:50 16.68397 38.95127 37842 ft 463 kts 184°
2026-05-04 10:52 16.42574 38.94192 37875 ft 463 kts 184°
2026-05-04 10:52 16.36109 38.93958 37877 ft 463 kts 184°
2026-05-04 10:54 16.10317 38.93024 37917 ft 463 kts 184°
2026-05-04 10:56 15.84502 38.92095 37973 ft 463 kts 184°
2026-05-04 10:57 15.78044 38.91861 37992 ft 463 kts 184°
2026-05-04 10:57 15.71606 38.91629 38011 ft 463 kts 184°
2026-05-04 10:58 15.65168 38.91398 38079 ft 463 kts 184°
2026-05-04 10:58 15.58720 38.91167 38132 ft 463 kts 184°
2026-05-04 10:59 15.52266 38.90935 38188 ft 463 kts 184°
2026-05-04 10:59 15.45802 38.90703 38229 ft 464 kts 183°
2026-05-04 11:00 15.39326 38.90470 38262 ft 464 kts 183°
2026-05-04 11:02 15.13491 38.90033 38335 ft 464 kts 181°
2026-05-04 11:05 14.64952 38.90009 38319 ft 463 kts 180°
2026-05-04 11:06 14.58501 38.90004 38307 ft 463 kts 180°
2026-05-04 11:06 14.52036 38.89996 38285 ft 463 kts 180°
2026-05-04 11:10 14.06753 38.89528 38335 ft 466 kts 180°
2026-05-04 11:12 13.80748 38.89079 38316 ft 466 kts 181°
2026-05-04 11:12 13.74222 38.88961 38305 ft 467 kts 180°
2026-05-04 11:13 13.67731 38.88844 38294 ft 468 kts 180°
2026-05-04 11:13 13.61182 38.88725 38284 ft 469 kts 180°
2026-05-04 11:14 13.54642 38.88609 38276 ft 469 kts 180°
2026-05-04 11:16 13.28392 38.88136 38252 ft 472 kts 180°
2026-05-04 11:16 13.21803 38.88018 38246 ft 472 kts 180°
2026-05-04 11:17 13.15203 38.87899 38252 ft 472 kts 180°
2026-05-04 11:19 12.88810 38.87400 38284 ft 474 kts 181°
2026-05-04 11:19 12.82183 38.87208 38290 ft 474 kts 181°
2026-05-04 11:20 12.75608 38.87017 38313 ft 473 kts 181°
2026-05-04 11:20 12.69004 38.86829 38339 ft 473 kts 181°
2026-05-04 11:22 12.42599 38.86091 38424 ft 474 kts 181°
2026-05-04 11:23 12.35997 38.85906 38424 ft 473 kts 181°
2026-05-04 11:25 12.12996 38.85268 38434 ft 471 kts 181°
2026-05-04 11:25 12.06395 38.85085 38438 ft 472 kts 180°
2026-05-04 11:27 11.76817 38.84269 38569 ft 470 kts 180°
2026-05-04 11:28 11.70263 38.84088 38582 ft 470 kts 180°
2026-05-04 11:28 11.63734 38.83909 38587 ft 471 kts 180°
2026-05-04 11:29 11.57142 38.83727 38586 ft 471 kts 180°
2026-05-04 11:29 11.50614 38.83547 38568 ft 471 kts 180°
2026-05-04 11:33 11.04779 38.82286 38625 ft 470 kts 180°
2026-05-04 11:33 10.98234 38.82106 38636 ft 470 kts 180°
2026-05-04 11:34 10.91697 38.81928 38628 ft 469 kts 180°
2026-05-04 11:34 10.85146 38.81748 38617 ft 468 kts 180°
2026-05-04 11:35 10.78645 38.81568 38599 ft 468 kts 180°
2026-05-04 11:35 10.72121 38.81390 38596 ft 468 kts 180°
2026-05-04 11:36 10.65600 38.81211 38537 ft 468 kts 180°
2026-05-04 11:36 10.59056 38.81033 38486 ft 469 kts 180°
2026-05-04 11:37 10.52532 38.80855 38463 ft 468 kts 180°
2026-05-04 11:37 10.45990 38.80677 38403 ft 469 kts 180°
2026-05-04 11:38 10.39488 38.80499 38420 ft 468 kts 180°
2026-05-04 11:38 10.32944 38.80320 38391 ft 468 kts 181°
2026-05-04 11:39 10.26407 38.80140 38384 ft 468 kts 181°
2026-05-04 11:41 10.03578 38.79517 38283 ft 468 kts 181°
2026-05-04 11:41 9.97017 38.79340 38259 ft 468 kts 181°
2026-05-04 11:42 9.90527 38.79163 38289 ft 468 kts 181°
2026-05-04 11:42 9.83990 38.78984 38346 ft 469 kts 181°
2026-05-04 11:43 9.77411 38.78803 38393 ft 469 kts 181°
2026-05-04 11:43 9.70889 38.78625 38435 ft 469 kts 181°
2026-05-04 11:44 9.64343 38.78448 38433 ft 470 kts 181°
2026-05-04 11:44 9.57805 38.78271 38431 ft 469 kts 181°
2026-05-04 11:45 9.51244 38.78092 38451 ft 470 kts 181°
2026-05-04 11:45 9.44690 38.77914 38461 ft 471 kts 181°
2026-05-04 11:46 9.38119 38.77735 38457 ft 471 kts 181°
2026-05-04 11:46 9.31565 38.77556 38472 ft 471 kts 181°
2026-05-04 11:47 9.24965 38.77377 38477 ft 472 kts 181°
2026-05-04 11:47 9.18397 38.77199 38491 ft 473 kts 181°
2026-05-04 11:48 9.11812 38.76777 38490 ft 474 kts 186°
2026-05-04 11:48 9.05270 38.75655 38494 ft 474 kts 192°
2026-05-04 11:49 8.98846 38.74061 38494 ft 474 kts 193°
2026-05-04 11:49 8.92440 38.72445 38486 ft 474 kts 193°
2026-05-04 11:50 8.86033 38.70835 38471 ft 475 kts 193°
2026-05-04 11:50 8.79580 38.69216 38461 ft 475 kts 193°
2026-05-04 11:51 8.73158 38.67606 38443 ft 476 kts 193°
2026-05-04 11:51 8.66693 38.65986 38435 ft 476 kts 193°
2026-05-04 11:52 8.60262 38.64376 38424 ft 476 kts 193°
2026-05-04 11:52 8.53835 38.62769 38428 ft 476 kts 193°
2026-05-04 11:53 8.47354 38.61147 38438 ft 476 kts 193°
2026-05-04 11:53 8.40911 38.59535 38439 ft 476 kts 193°
2026-05-04 11:55 8.15396 38.53157 38389 ft 477 kts 193°
2026-05-04 11:56 8.08933 38.51550 38385 ft 477 kts 193°
2026-05-04 11:56 8.02456 38.49938 38380 ft 477 kts 193°
2026-05-04 11:57 7.96019 38.48335 38373 ft 478 kts 193°
2026-05-04 11:57 7.89506 38.46713 38377 ft 479 kts 193°
2026-05-04 11:58 7.83023 38.45100 38382 ft 479 kts 193°
2026-05-04 11:58 7.76572 38.43494 38375 ft 479 kts 193°
2026-05-04 11:59 7.70058 38.41874 38366 ft 479 kts 193°
2026-05-04 11:59 7.63595 38.40266 38357 ft 478 kts 193°
2026-05-04 12:00 7.57142 38.38661 38353 ft 478 kts 193°
2026-05-04 12:00 7.50628 38.37041 38350 ft 478 kts 193°
2026-05-04 12:01 7.44192 38.35386 38347 ft 479 kts 194°
2026-05-04 12:02 7.21598 38.29221 38349 ft 478 kts 194°
2026-05-04 12:03 7.15158 38.27471 38346 ft 478 kts 194°
2026-05-04 12:03 7.08725 38.25724 38338 ft 477 kts 194°
2026-05-04 12:04 7.02329 38.23988 38335 ft 477 kts 194°
2026-05-04 12:04 6.95895 38.22243 38321 ft 476 kts 194°
2026-05-04 12:05 6.89462 38.20499 38312 ft 476 kts 194°
2026-05-04 12:05 6.83074 38.18767 38303 ft 476 kts 194°
2026-05-04 12:06 6.76670 38.17031 38290 ft 476 kts 194°
2026-05-04 12:06 6.70236 38.15287 38272 ft 476 kts 194°
2026-05-04 12:07 6.63844 38.13554 38247 ft 476 kts 194°
2026-05-04 12:07 6.57449 38.11821 38223 ft 477 kts 194°
2026-05-04 12:08 6.51000 38.10072 38199 ft 477 kts 194°
2026-05-04 12:08 6.44600 38.08330 38192 ft 476 kts 194°
2026-05-04 12:09 6.38166 38.06578 38213 ft 478 kts 194°
2026-05-04 12:09 6.31761 38.04834 38218 ft 478 kts 194°
2026-05-04 12:10 6.25322 38.03079 38228 ft 477 kts 194°
2026-05-04 12:10 6.18929 38.01337 38234 ft 477 kts 194°
2026-05-04 12:11 6.12509 37.99587 38220 ft 477 kts 194°
2026-05-04 12:11 6.06041 37.97825 38205 ft 477 kts 194°
2026-05-04 12:12 5.99612 37.96077 38185 ft 478 kts 194°
2026-05-04 12:12 5.93204 37.94333 38183 ft 480 kts 194°
2026-05-04 12:14 5.67419 37.87317 38205 ft 478 kts 194°
2026-05-04 12:15 5.60961 37.85563 38217 ft 479 kts 194°
2026-05-04 12:15 5.54522 37.83814 38208 ft 479 kts 194°
2026-05-04 12:16 5.48137 37.82079 38193 ft 480 kts 194°
2026-05-04 12:16 5.41701 37.80330 38163 ft 479 kts 194°
2026-05-04 12:17 5.35277 37.78585 38151 ft 478 kts 193°
2026-05-04 12:17 5.28843 37.76836 38140 ft 477 kts 193°
2026-05-04 12:18 5.22424 37.75095 38126 ft 477 kts 193°
2026-05-04 12:18 5.15996 37.73351 38127 ft 477 kts 193°
2026-05-04 12:19 5.09584 37.71611 38128 ft 477 kts 193°
2026-05-04 12:19 5.03171 37.69872 38117 ft 477 kts 193°
2026-05-04 12:20 4.96718 37.68121 38130 ft 476 kts 193°
2026-05-04 12:20 4.90330 37.66389 38122 ft 476 kts 193°
2026-05-04 12:21 4.83896 37.64645 38112 ft 476 kts 193°
2026-05-04 12:21 4.77510 37.62913 38102 ft 476 kts 193°
2026-05-04 12:22 4.71078 37.61171 38092 ft 476 kts 193°
2026-05-04 12:22 4.64677 37.59435 38097 ft 476 kts 193°
2026-05-04 12:23 4.58270 37.57700 38093 ft 476 kts 193°
2026-05-04 12:23 4.51893 37.55973 38077 ft 475 kts 193°
2026-05-04 12:24 4.45478 37.54235 38070 ft 476 kts 193°
2026-05-04 12:24 4.39100 37.52507 38057 ft 476 kts 193°
2026-05-04 12:25 4.32693 37.50773 38046 ft 476 kts 193°
2026-05-04 12:25 4.26275 37.49035 38029 ft 476 kts 193°
2026-05-04 12:26 4.19857 37.47298 38028 ft 475 kts 193°
2026-05-04 12:26 4.13468 37.45567 38022 ft 475 kts 193°
2026-05-04 12:27 4.07057 37.43832 38008 ft 475 kts 193°
2026-05-04 12:27 4.00668 37.42102 37993 ft 476 kts 193°
2026-05-04 12:28 3.94277 37.40276 37980 ft 476 kts 195°
2026-05-04 12:28 3.87936 37.38388 37970 ft 476 kts 195°
2026-05-04 12:29 3.81557 37.36492 37962 ft 476 kts 194°
2026-05-04 12:29 3.75192 37.34608 37945 ft 475 kts 194°
2026-05-04 12:30 3.68855 37.32735 37942 ft 475 kts 194°
2026-05-04 12:30 3.62519 37.30863 37937 ft 475 kts 194°
2026-05-04 12:31 3.56145 37.28982 37932 ft 475 kts 194°
2026-05-04 12:31 3.49790 37.27105 37923 ft 475 kts 194°
2026-05-04 12:32 3.40278 37.24296 37919 ft 474 kts 194°
2026-05-04 12:33 3.33933 37.22423 37920 ft 474 kts 194°
2026-05-04 12:33 3.27608 37.20555 37914 ft 474 kts 194°
2026-05-04 12:34 3.21269 37.18686 37912 ft 473 kts 194°
2026-05-04 12:34 3.14950 37.16823 37911 ft 473 kts 194°
2026-05-04 12:35 3.08618 37.14954 37922 ft 473 kts 194°
2026-05-04 12:35 3.02283 37.13083 37918 ft 473 kts 194°
2026-05-04 12:36 2.95972 37.11222 37921 ft 473 kts 194°
2026-05-04 12:36 2.89618 37.09347 37935 ft 474 kts 194°
2026-05-04 12:37 2.83276 37.07476 37955 ft 474 kts 194°
2026-05-04 12:37 2.76966 37.05618 37971 ft 473 kts 194°
2026-05-04 12:38 2.70635 37.03749 37984 ft 472 kts 194°
2026-05-04 12:38 2.64312 37.01886 37982 ft 473 kts 193°
2026-05-04 12:39 2.58006 37.00027 37983 ft 473 kts 193°
2026-05-04 12:39 2.51664 36.98157 37986 ft 473 kts 193°
2026-05-04 12:40 2.45364 36.96300 37997 ft 473 kts 193°
2026-05-04 12:40 2.39028 36.94434 38000 ft 472 kts 193°
2026-05-04 12:41 2.32697 36.92568 38023 ft 472 kts 193°
2026-05-04 12:41 2.26627 36.90780 38040 ft 473 kts 193°
2026-05-04 12:42 2.20410 36.88949 38060 ft 473 kts 193°
2026-05-04 12:42 2.14080 36.87085 38077 ft 473 kts 193°
2026-05-04 12:43 2.07732 36.85216 38080 ft 473 kts 193°
2026-05-04 12:43 2.01422 36.83355 38088 ft 472 kts 192°
2026-05-04 12:44 1.95107 36.81497 38096 ft 473 kts 192°
2026-05-04 12:44 1.88779 36.79635 38109 ft 473 kts 193°
2026-05-04 12:45 1.82375 36.77750 38108 ft 474 kts 193°
2026-05-04 12:45 1.76032 36.75881 38108 ft 475 kts 193°
2026-05-04 12:46 1.69670 36.74008 38115 ft 475 kts 193°
2026-05-04 12:46 1.63337 36.72145 38121 ft 475 kts 193°
2026-05-04 12:47 1.56975 36.70272 38129 ft 475 kts 193°
2026-05-04 12:47 1.50602 36.68395 38132 ft 475 kts 193°
2026-05-04 12:48 1.44257 36.66526 38130 ft 475 kts 193°
2026-05-04 12:48 1.37920 36.64663 38134 ft 476 kts 193°
2026-05-04 12:49 1.31545 36.62785 38136 ft 477 kts 193°
2026-05-04 12:49 1.28333 36.61840 37852 ft 476 kts 193°
2026-05-04 12:49 1.25175 36.60910 37560 ft 473 kts 193°
2026-05-04 12:49 1.22035 36.59984 37265 ft 469 kts 193°
2026-05-04 12:50 1.18873 36.59052 36963 ft 467 kts 193°
2026-05-04 12:50 1.15787 36.58143 36675 ft 465 kts 193°
2026-05-04 12:50 1.12664 36.57224 36380 ft 465 kts 193°
2026-05-04 12:50 1.09532 36.56304 36082 ft 466 kts 193°
2026-05-04 12:51 1.06404 36.55508 35791 ft 464 kts 189°
2026-05-04 12:51 1.03238 36.54919 35499 ft 462 kts 185°
2026-05-04 12:51 1.00056 36.54542 35209 ft 461 kts 181°
2026-05-04 12:51 0.96822 36.54376 34918 ft 460 kts 178°
2026-05-04 12:52 0.93649 36.54425 34633 ft 459 kts 174°
2026-05-04 12:52 0.90437 36.54686 34343 ft 457 kts 170°
2026-05-04 12:52 0.87293 36.55097 34059 ft 457 kts 169°
2026-05-04 12:52 0.84099 36.55539 33770 ft 458 kts 169°
2026-05-04 12:53 0.80941 36.55980 33486 ft 459 kts 169°
2026-05-04 12:53 0.77754 36.56423 33198 ft 459 kts 169°
2026-05-04 12:53 0.74587 36.56863 32912 ft 457 kts 169°
2026-05-04 12:53 0.71450 36.57296 32634 ft 455 kts 169°
2026-05-04 12:54 0.68297 36.57731 32380 ft 454 kts 169°
2026-05-04 12:54 0.65162 36.58163 32126 ft 453 kts 169°
2026-05-04 12:54 0.62042 36.58592 31876 ft 452 kts 169°
2026-05-04 12:54 0.58915 36.59022 31635 ft 451 kts 169°
2026-05-04 12:55 0.55781 36.59454 31400 ft 450 kts 169°
2026-05-04 12:55 0.52675 36.59882 31169 ft 449 kts 169°
2026-05-04 12:55 0.49597 36.60306 30870 ft 447 kts 169°
2026-05-04 12:55 0.46528 36.60728 30528 ft 445 kts 169°
2026-05-04 12:56 0.43445 36.61153 30169 ft 442 kts 169°
2026-05-04 12:56 0.40381 36.61574 29798 ft 439 kts 169°
2026-05-04 12:56 0.37387 36.61987 29435 ft 437 kts 169°
2026-05-04 12:56 0.34359 36.62404 29070 ft 434 kts 169°
2026-05-04 12:57 0.31360 36.62817 28699 ft 431 kts 169°
2026-05-04 12:57 0.28411 36.63223 28335 ft 428 kts 169°
2026-05-04 12:57 0.25459 36.63630 27969 ft 425 kts 169°
2026-05-04 12:57 0.22546 36.64030 27608 ft 423 kts 169°
2026-05-04 12:58 0.19617 36.64433 27245 ft 420 kts 169°
2026-05-04 12:58 0.16709 36.64835 26875 ft 417 kts 169°
2026-05-04 12:58 0.13828 36.65231 26509 ft 414 kts 169°
2026-05-04 12:58 0.10998 36.65621 26146 ft 412 kts 169°
2026-05-04 12:59 0.08143 36.66015 25774 ft 409 kts 169°
2026-05-04 12:59 0.05351 36.66399 25420 ft 406 kts 169°
2026-05-04 12:59 0.02538 36.66787 25059 ft 403 kts 169°
2026-05-04 12:59 -0.00225 36.67168 24701 ft 400 kts 169°
2026-05-04 13:00 -0.02995 36.67581 24334 ft 397 kts 166°
2026-05-04 13:00 -0.05653 36.68211 23970 ft 393 kts 161°
2026-05-04 13:00 -0.08234 36.69094 23635 ft 388 kts 155°
2026-05-04 13:00 -0.10719 36.70158 23302 ft 384 kts 154°
2026-05-04 13:01 -0.13153 36.71239 22966 ft 382 kts 153°
2026-05-04 13:01 -0.15671 36.72367 22586 ft 407 kts 154°
2026-05-04 13:01 -0.18352 36.73568 22186 ft 426 kts 154°
2026-05-04 13:01 -0.21056 36.74771 21809 ft 428 kts 154°
2026-05-04 13:02 -0.23802 36.75991 21415 ft 427 kts 154°
2026-05-04 13:02 -0.26493 36.77185 21016 ft 426 kts 154°
2026-05-04 13:02 -0.29208 36.78389 20606 ft 423 kts 154°
2026-05-04 13:02 -0.31920 36.79591 20192 ft 421 kts 154°
2026-05-04 13:03 -0.34579 36.80772 19776 ft 420 kts 154°
2026-05-04 13:03 -0.37254 36.81959 19350 ft 418 kts 154°
2026-05-04 13:03 -0.39898 36.83132 18935 ft 416 kts 154°
2026-05-04 13:03 -0.42555 36.84311 18516 ft 415 kts 154°
2026-05-04 13:04 -0.45201 36.85487 18101 ft 413 kts 154°
2026-05-04 13:04 -0.47802 36.86642 17686 ft 412 kts 154°
2026-05-04 13:04 -0.50441 36.87814 17270 ft 410 kts 154°
2026-05-04 13:04 -0.53043 36.88967 16864 ft 408 kts 154°
2026-05-04 13:05 -0.55616 36.90111 16455 ft 406 kts 155°
2026-05-04 13:05 -0.58223 36.91267 16046 ft 404 kts 154°
2026-05-04 13:05 -0.60776 36.92401 15646 ft 402 kts 155°
2026-05-04 13:05 -0.63345 36.93542 15241 ft 400 kts 155°
2026-05-04 13:06 -0.65874 36.94665 14836 ft 398 kts 155°
2026-05-04 13:06 -0.68418 36.95794 14436 ft 396 kts 155°
2026-05-04 13:06 -0.70917 36.96904 14051 ft 394 kts 155°
2026-05-04 13:06 -0.73448 36.98027 13646 ft 392 kts 155°
2026-05-04 13:07 -0.75921 36.99125 13282 ft 389 kts 155°
2026-05-04 13:07 -0.78372 37.00213 12771 ft 378 kts 155°
2026-05-04 13:07 -0.80743 37.01266 12337 ft 367 kts 155°
2026-05-04 13:07 -0.83038 37.02284 12051 ft 352 kts 155°
2026-05-04 13:08 -0.85240 37.03262 11773 ft 344 kts 155°
2026-05-04 13:08 -0.87449 37.04245 11437 ft 342 kts 155°
2026-05-04 13:08 -0.89595 37.05199 11223 ft 336 kts 155°
2026-05-04 13:08 -0.91702 37.06134 11204 ft 323 kts 155°
2026-05-04 13:09 -0.93734 37.07035 11200 ft 310 kts 155°
2026-05-04 13:09 -0.95664 37.07892 11203 ft 297 kts 154°
2026-05-04 13:09 -0.97521 37.08716 11197 ft 285 kts 154°
2026-05-04 13:09 -0.99311 37.09511 11196 ft 274 kts 154°
2026-05-04 13:10 -1.01005 37.10283 11198 ft 262 kts 152°
2026-05-04 13:10 -1.02627 37.11105 10958 ft 263 kts 152°
2026-05-04 13:10 -1.04277 37.11956 10662 ft 265 kts 151°
2026-05-04 13:10 -1.05921 37.12804 10410 ft 265 kts 152°
2026-05-04 13:11 -1.07553 37.13642 10197 ft 263 kts 153°
2026-05-04 13:11 -1.09328 37.14091 9906 ft 266 kts 184°
2026-05-04 13:11 -1.11108 37.13569 9624 ft 268 kts 204°
2026-05-04 13:11 -1.12788 37.12740 9326 ft 270 kts 206°
2026-05-04 13:12 -1.14482 37.11887 9026 ft 272 kts 205°
2026-05-04 13:12 -1.16197 37.11062 8723 ft 272 kts 204°
2026-05-04 13:12 -1.17913 37.10265 8374 ft 266 kts 203°
2026-05-04 13:12 -1.19485 37.09386 8089 ft 258 kts 218°
2026-05-04 13:13 -1.20728 37.08141 7929 ft 245 kts 230°
2026-05-04 13:13 -1.21711 37.06815 7888 ft 228 kts 234°
2026-05-04 13:13 -1.22586 37.05554 7846 ft 210 kts 233°
2026-05-04 13:13 -1.23396 37.04409 7673 ft 198 kts 232°
2026-05-04 13:14 -1.24192 37.03315 7413 ft 191 kts 232°
2026-05-04 13:14 -1.24967 37.02261 7153 ft 185 kts 231°
2026-05-04 13:14 -1.25719 37.01237 6909 ft 178 kts 231°
2026-05-04 13:14 -1.26438 37.00256 6684 ft 170 kts 231°
2026-05-04 13:15 -1.27120 36.99324 6465 ft 163 kts 231°
2026-05-04 13:15 -1.27786 36.98414 6260 ft 161 kts 231°
2026-05-04 13:15 -1.28449 36.97510 6049 ft 161 kts 231°
2026-05-04 13:15 -1.29117 36.96614 5843 ft 161 kts 231°
2026-05-04 13:16 -1.29782 36.95700 5589 ft 161 kts 231°
2026-05-04 13:16 -1.30439 36.94808 5356 ft 159 kts 231°
2026-05-04 13:16 -1.31076 36.93934 5301 ft 145 kts 230°
2026-05-04 13:16 -1.31609 36.93217 5321 ft 104 kts 233°
2026-05-04 13:17 -1.31931 36.92769 5324 ft 64 kts 233°
2026-05-04 13:17 -1.32159 36.92460 5323 ft 48 kts 233°
2026-05-04 13:17 -1.32351 36.92194 5322 ft 44 kts 234°
2026-05-04 13:17 -1.32523 36.91962 5325 ft 39 kts 233°
2026-05-04 13:18 -1.32668 36.91766 5330 ft 26 kts 234°
2026-05-04 13:18 -1.32737 36.91676 5333 ft 9 kts 215°
2026-05-04 13:18 -1.32797 36.91678 5333 ft 9 kts 153°
2026-05-04 13:18 -1.32850 36.91712 5333 ft 9 kts 144°
2026-05-04 13:19 -1.32906 36.91753 5333 ft 10 kts 143°
2026-05-04 13:19 -1.32946 36.91782 5334 ft 10 kts 144°
2026-05-04 13:19 -1.33032 36.91843 5334 ft 12 kts 144°
2026-05-04 13:19 -1.33102 36.91894 5333 ft 13 kts 144°
2026-05-04 13:20 -1.33184 36.91953 5331 ft 15 kts 143°
2026-05-04 13:20 -1.33284 36.92026 5325 ft 19 kts 144°
2026-05-04 13:20 -1.33391 36.92104 5318 ft 15 kts 144°
2026-05-04 13:20 -1.33473 36.92163 5315 ft 14 kts 144°
2026-05-04 13:21 -1.33519 36.92197 5314 ft 7 kts 135°
2026-05-04 13:21 -1.33527 36.92244 5313 ft 7 kts 69°
2026-05-04 13:21 -1.33496 36.92291 5313 ft 7 kts 53°
2026-05-04 13:21 -1.33463 36.92337 5312 ft 5 kts 54°
2026-05-04 13:22 -1.33444 36.92360 5312 ft 4 kts 44°
2026-05-04 13:22 -1.33413 36.92377 5312 ft 5 kts 20°
2026-05-04 13:22 -1.33384 36.92387 5312 ft 3 kts 18°
2026-05-04 13:22 -1.33369 36.92392 5313 ft 1 kts 18°
2026-05-04 13:23 -1.33359 36.92395 5313 ft 1 kts 18°
2026-05-04 13:23 -1.33357 36.92396 5313 ft 0 kts 18°
2026-05-04 13:23 -1.33358 36.92395 5313 ft 0 kts 18°
2026-05-04 13:24 -1.33359 36.92395 5313 ft 0 kts 18°